Time,TemperatureF,DewpointF,PressureIn,WindDirection,WindDirectionDegrees,WindSpeedMPH,WindSpeedGustMPH,Humidity,HourlyPrecipIn,Conditions,Clouds,dailyrainin,SoftwareType,DateUTC
2013-03-11 00:03:00,51.0,47.0,30.21,ENE,69,3.0,5.0,86,0.00,,,0.00,WeatherTracker,2013-03-11 07:03:00,
2013-03-11 00:08:00,50.9,46.9,30.21,ENE,69,3.0,5.0,86,0.00,,,0.00,WeatherTracker,2013-03-11 07:08:00,
2013-03-11 00:13:00,50.8,47.1,30.21,ENE,70,3.0,5.0,87,0.00,,,0.00,WeatherTracker,2013-03-11 07:13:00,
2013-03-11 00:18:00,50.7,47.0,30.21,ENE,69,0.0,5.0,87,0.00,,,0.00,WeatherTracker,2013-03-11 07:18:00,
2013-03-11 00:23:00,50.6,46.9,30.21,ENE,70,0.0,3.0,87,0.00,,,0.00,WeatherTracker,2013-03-11 07:23:00,
2013-03-11 00:28:00,50.3,46.6,30.21,ENE,69,0.0,0.0,87,0.00,,,0.00,WeatherTracker,2013-03-11 07:28:00,
2013-03-11 00:33:00,49.9,45.9,30.20,ENE,70,2.0,2.0,86,0.00,,,0.00,WeatherTracker,2013-03-11 07:33:00,
2013-03-11 00:38:00,49.5,45.5,30.20,ENE,68,1.0,3.0,86,0.00,,,0.00,WeatherTracker,2013-03-11 07:38:00,
2013-03-11 00:43:00,49.2,45.5,30.20,ENE,69,2.0,3.0,87,0.00,,,0.00,WeatherTracker,2013-03-11 07:43:00,
2013-03-11 00:48:00,49.1,45.4,30.20,NE,40,1.0,4.0,87,0.00,,,0.00,WeatherTracker,2013-03-11 07:48:00,
2013-03-11 00:53:00,49.1,45.4,30.20,NE,40,0.0,4.0,87,0.00,,,0.00,WeatherTracker,2013-03-11 07:53:00,
2013-03-11 00:58:00,49.2,45.5,30.20,NE,34,0.0,3.0,87,0.00,,,0.00,WeatherTracker,2013-03-11 07:58:00,
2013-03-11 01:03:00,49.1,45.7,30.20,NE,34,0.0,3.0,88,0.00,,,0.00,WeatherTracker,2013-03-11 08:03:00,
2013-03-11 01:08:00,49.1,45.7,30.20,NE,34,1.0,2.0,88,0.00,,,0.00,WeatherTracker,2013-03-11 08:08:00,
2013-03-11 01:13:00,49.1,45.7,30.20,NE,34,0.0,2.0,88,0.00,,,0.00,WeatherTracker,2013-03-11 08:13:00,
2013-03-11 01:18:00,49.0,45.6,30.20,NE,34,0.0,2.0,88,0.00,,,0.00,WeatherTracker,2013-03-11 08:18:00,
2013-03-11 01:23:00,49.2,46.1,30.20,NE,34,2.0,2.0,89,0.00,,,0.00,WeatherTracker,2013-03-11 08:23:00,
2013-03-11 01:28:00,49.2,46.1,30.19,NE,34,0.0,2.0,89,0.00,,,0.00,WeatherTracker,2013-03-11 08:28:00,
2013-03-11 01:33:00,49.2,46.1,30.19,NE,41,3.0,3.0,89,0.00,,,0.00,WeatherTracker,2013-03-11 08:33:00,
2013-03-11 01:38:00,49.0,45.6,30.19,NE,42,0.0,3.0,88,0.00,,,0.00,WeatherTracker,2013-03-11 08:38:00,
2013-03-11 01:43:00,49.0,45.9,30.19,NE,42,0.0,3.0,89,0.00,,,0.00,WeatherTracker,2013-03-11 08:43:00,
2013-03-11 01:48:00,48.8,45.4,30.19,NE,41,0.0,0.0,88,0.00,,,0.00,WeatherTracker,2013-03-11 08:48:00,
2013-03-11 01:53:00,48.6,45.2,30.19,NE,42,0.0,0.0,88,0.00,,,0.00,WeatherTracker,2013-03-11 08:53:00,
2013-03-11 01:59:00,48.5,45.4,30.20,NE,42,2.0,2.0,89,0.00,,,0.00,WeatherTracker,2013-03-11 08:59:00,
2013-03-11 02:04:00,48.4,45.3,30.20,NE,40,2.0,3.0,89,0.00,,,0.00,WeatherTracker,2013-03-11 09:04:00,
2013-03-11 02:09:00,48.0,44.6,30.20,NE,40,2.0,3.0,88,0.00,,,0.00,WeatherTracker,2013-03-11 09:09:00,
2013-03-11 02:14:00,47.8,44.7,30.20,NE,40,3.0,3.0,89,0.00,,,0.00,WeatherTracker,2013-03-11 09:14:00,
2013-03-11 02:19:00,47.4,44.0,30.20,NNE,24,3.0,4.0,88,0.00,,,0.00,WeatherTracker,2013-03-11 09:19:00,
2013-03-11 02:24:00,47.5,44.4,30.20,NNE,24,1.0,4.0,89,0.00,,,0.00,WeatherTracker,2013-03-11 09:24:00,
2013-03-11 02:29:00,47.6,44.5,30.20,NNE,24,0.0,3.0,89,0.00,,,0.00,WeatherTracker,2013-03-11 09:29:00,
2013-03-11 02:34:00,47.6,44.5,30.20,NNE,24,1.0,3.0,89,0.00,,,0.00,WeatherTracker,2013-03-11 09:34:00,
2013-03-11 02:39:00,47.6,44.8,30.20,NNE,24,0.0,1.0,90,0.00,,,0.00,WeatherTracker,2013-03-11 09:39:00,
2013-03-11 02:44:00,47.6,44.8,30.20,NNE,24,0.0,1.0,90,0.00,,,0.00,WeatherTracker,2013-03-11 09:44:00,
2013-03-11 02:49:00,47.6,44.8,30.20,NNE,24,0.0,1.0,90,0.00,,,0.00,WeatherTracker,2013-03-11 09:49:00,
2013-03-11 02:54:00,47.4,44.6,30.20,NNE,24,0.0,1.0,90,0.00,,,0.00,WeatherTracker,2013-03-11 09:54:00,
2013-03-11 02:59:00,47.3,44.5,30.20,NNE,24,1.0,0.0,90,0.00,,,0.00,WeatherTracker,2013-03-11 09:59:00,
2013-03-11 03:04:00,47.2,44.4,30.20,NNE,24,0.0,1.0,90,0.00,,,0.00,WeatherTracker,2013-03-11 10:04:00,
2013-03-11 03:09:00,47.2,44.4,30.20,NNE,24,0.0,1.0,90,0.00,,,0.00,WeatherTracker,2013-03-11 10:09:00,
2013-03-11 03:14:00,47.2,44.4,30.19,NNE,24,0.0,0.0,90,0.00,,,0.00,WeatherTracker,2013-03-11 10:14:00,
2013-03-11 03:19:00,47.2,44.7,30.19,NNE,24,0.0,0.0,91,0.00,,,0.00,WeatherTracker,2013-03-11 10:19:00,
2013-03-11 03:24:00,47.2,44.7,30.19,NNE,24,2.0,2.0,91,0.00,,,0.00,WeatherTracker,2013-03-11 10:24:00,
2013-03-11 03:29:00,46.9,44.1,30.19,NNE,24,2.0,3.0,90,0.00,,,0.00,WeatherTracker,2013-03-11 10:29:00,
2013-03-11 03:34:00,46.5,44.0,30.19,NNE,24,0.0,3.0,91,0.00,,,0.00,WeatherTracker,2013-03-11 10:34:00,
2013-03-11 03:39:00,46.4,43.9,30.19,NNE,24,0.0,3.0,91,0.00,,,0.00,WeatherTracker,2013-03-11 10:39:00,
2013-03-11 03:44:00,46.4,43.9,30.18,NNE,24,2.0,2.0,91,0.00,,,0.00,WeatherTracker,2013-03-11 10:44:00,
2013-03-11 03:49:00,46.3,43.8,30.18,NNE,24,2.0,3.0,91,0.00,,,0.00,WeatherTracker,2013-03-11 10:49:00,
2013-03-11 03:54:00,46.1,43.6,30.18,NNE,24,2.0,3.0,91,0.00,,,0.00,WeatherTracker,2013-03-11 10:54:00,
2013-03-11 03:59:00,45.8,43.3,30.18,NNE,24,0.0,3.0,91,0.00,,,0.00,WeatherTracker,2013-03-11 10:59:00,
2013-03-11 04:04:00,45.7,43.2,30.18,NNE,24,0.0,3.0,91,0.00,,,0.00,WeatherTracker,2013-03-11 11:04:00,
2013-03-11 04:09:00,45.9,43.4,30.18,NNE,24,0.0,0.0,91,0.00,,,0.00,WeatherTracker,2013-03-11 11:09:00,
2013-03-11 04:15:00,45.9,43.4,30.18,NNE,24,0.0,0.0,91,0.00,,,0.00,WeatherTracker,2013-03-11 11:15:00,
2013-03-11 04:20:00,45.7,43.2,30.18,NNE,24,2.0,3.0,91,0.00,,,0.00,WeatherTracker,2013-03-11 11:20:00,
2013-03-11 04:25:00,45.6,43.4,30.18,NNE,24,0.0,3.0,92,0.00,,,0.00,WeatherTracker,2013-03-11 11:25:00,
2013-03-11 04:30:00,45.5,43.0,30.18,NNE,24,1.0,3.0,91,0.00,,,0.00,WeatherTracker,2013-03-11 11:30:00,
2013-03-11 04:35:00,45.5,43.3,30.18,NNE,24,1.0,3.0,92,0.00,,,0.00,WeatherTracker,2013-03-11 11:35:00,
2013-03-11 04:40:00,45.4,43.2,30.18,NNE,24,2.0,3.0,92,0.00,,,0.00,WeatherTracker,2013-03-11 11:40:00,
2013-03-11 04:45:00,45.3,43.1,30.18,NNE,24,1.0,3.0,92,0.00,,,0.00,WeatherTracker,2013-03-11 11:45:00,
2013-03-11 04:50:00,45.2,43.0,30.18,NNE,24,3.0,4.0,92,0.00,,,0.00,WeatherTracker,2013-03-11 11:50:00,
2013-03-11 04:55:00,44.9,42.7,30.18,NNE,17,2.0,4.0,92,0.00,,,0.00,WeatherTracker,2013-03-11 11:55:00,
2013-03-11 05:00:00,44.8,42.6,30.18,North,360,2.0,4.0,92,0.00,,,0.00,WeatherTracker,2013-03-11 12:00:00,
2013-03-11 05:05:00,44.7,42.5,30.18,North,360,0.0,4.0,92,0.00,,,0.00,WeatherTracker,2013-03-11 12:05:00,
2013-03-11 05:10:00,44.6,42.4,30.18,North,360,4.0,4.0,92,0.00,,,0.00,WeatherTracker,2013-03-11 12:10:00,
2013-03-11 05:15:00,44.5,42.3,30.18,North,360,3.0,4.0,92,0.00,,,0.00,WeatherTracker,2013-03-11 12:15:00,
2013-03-11 05:20:00,44.5,42.3,30.18,North,360,2.0,4.0,92,0.00,,,0.00,WeatherTracker,2013-03-11 12:20:00,
2013-03-11 05:25:00,44.5,42.3,30.18,North,360,1.0,3.0,92,0.00,,,0.00,WeatherTracker,2013-03-11 12:25:00,
2013-03-11 05:30:00,44.5,42.3,30.18,North,360,1.0,3.0,92,0.00,,,0.00,WeatherTracker,2013-03-11 12:30:00,
2013-03-11 05:35:00,44.5,42.3,30.18,North,360,3.0,3.0,92,0.00,,,0.00,WeatherTracker,2013-03-11 12:35:00,
2013-03-11 05:40:00,44.5,42.3,30.18,North,360,2.0,3.0,92,0.00,,,0.00,WeatherTracker,2013-03-11 12:40:00,
2013-03-11 05:45:00,44.5,42.3,30.18,North,360,2.0,3.0,92,0.00,,,0.00,WeatherTracker,2013-03-11 12:45:00,
2013-03-11 05:50:00,44.5,42.3,30.18,North,360,2.0,3.0,92,0.00,,,0.00,WeatherTracker,2013-03-11 12:50:00,
2013-03-11 05:56:00,44.5,42.3,30.18,North,349,3.0,5.0,92,0.00,,,0.00,WeatherTracker,2013-03-11 12:56:00,
2013-03-11 06:01:00,44.3,42.1,30.18,NW,323,5.0,6.0,92,0.00,,,0.00,WeatherTracker,2013-03-11 13:01:00,
2013-03-11 06:06:00,44.0,41.8,30.18,NW,321,3.0,7.0,92,0.00,,,0.00,WeatherTracker,2013-03-11 13:06:00,
2013-03-11 06:11:00,44.1,41.9,30.18,NNW,327,3.0,7.0,92,0.00,,,0.00,WeatherTracker,2013-03-11 13:11:00,
2013-03-11 06:16:00,44.0,41.8,30.18,NNW,329,4.0,6.0,92,0.00,,,0.00,WeatherTracker,2013-03-11 13:16:00,
2013-03-11 06:21:00,43.9,41.7,30.18,NNW,329,4.0,6.0,92,0.00,,,0.00,WeatherTracker,2013-03-11 13:21:00,
2013-03-11 06:26:00,43.8,41.6,30.18,NNW,329,3.0,4.0,92,0.00,,,0.00,WeatherTracker,2013-03-11 13:26:00,
2013-03-11 06:31:00,43.8,41.9,30.18,NNW,329,2.0,5.0,93,0.00,,,0.00,WeatherTracker,2013-03-11 13:31:00,
2013-03-11 06:36:00,43.9,42.0,30.18,NNW,329,3.0,5.0,93,0.00,,,0.00,WeatherTracker,2013-03-11 13:36:00,
2013-03-11 06:41:00,43.9,42.0,30.18,NNW,329,2.0,4.0,93,0.00,,,0.00,WeatherTracker,2013-03-11 13:41:00,
2013-03-11 06:46:00,44.0,42.1,30.19,NNW,329,3.0,4.0,93,0.00,,,0.00,WeatherTracker,2013-03-11 13:46:00,
2013-03-11 06:51:00,43.9,42.0,30.19,NNW,329,2.0,4.0,93,0.00,,,0.00,WeatherTracker,2013-03-11 13:51:00,
2013-03-11 06:56:00,44.0,42.1,30.19,NNW,329,2.0,4.0,93,0.00,,,0.00,WeatherTracker,2013-03-11 13:56:00,
2013-03-11 07:02:00,44.0,42.1,30.18,NNW,329,2.0,3.0,93,0.00,,,0.00,WeatherTracker,2013-03-11 14:02:00,
2013-03-11 07:07:00,44.1,42.2,30.18,NNW,329,3.0,4.0,93,0.00,,,0.00,WeatherTracker,2013-03-11 14:07:00,
2013-03-11 07:12:00,44.1,42.2,30.18,NNW,329,4.0,5.0,93,0.00,,,0.00,WeatherTracker,2013-03-11 14:12:00,
2013-03-11 07:17:00,44.0,42.1,30.19,NNW,329,3.0,5.0,93,0.00,,,0.00,WeatherTracker,2013-03-11 14:17:00,
2013-03-11 07:22:00,44.0,42.1,30.19,NNW,329,3.0,5.0,93,0.00,,,0.00,WeatherTracker,2013-03-11 14:22:00,
2013-03-11 07:27:00,43.8,41.9,30.19,NNW,333,3.0,5.0,93,0.00,,,0.00,WeatherTracker,2013-03-11 14:27:00,
2013-03-11 07:32:00,43.8,41.9,30.19,NNW,333,3.0,5.0,93,0.00,,,0.00,WeatherTracker,2013-03-11 14:32:00,
2013-03-11 07:37:00,43.8,41.9,30.19,NNW,333,3.0,4.0,93,0.00,,,0.00,WeatherTracker,2013-03-11 14:37:00,
2013-03-11 07:42:00,44.0,42.1,30.19,NNW,333,2.0,4.0,93,0.00,,,0.00,WeatherTracker,2013-03-11 14:42:00,
2013-03-11 07:47:00,44.2,42.3,30.19,NNW,333,2.0,4.0,93,0.00,,,0.00,WeatherTracker,2013-03-11 14:47:00,
2013-03-11 07:52:00,44.5,42.6,30.19,NNW,333,3.0,3.0,93,0.00,,,0.00,WeatherTracker,2013-03-11 14:52:00,
2013-03-11 07:58:00,44.7,42.8,30.19,NNW,333,4.0,4.0,93,0.00,,,0.00,WeatherTracker,2013-03-11 14:58:00,
2013-03-11 08:03:00,44.9,43.0,30.19,NNW,334,3.0,4.0,93,0.00,,,0.00,WeatherTracker,2013-03-11 15:03:00,
2013-03-11 08:08:00,45.2,43.6,30.19,NNW,333,2.0,4.0,94,0.00,,,0.00,WeatherTracker,2013-03-11 15:08:00,
2013-03-11 08:13:00,45.6,43.7,30.19,NNW,334,4.0,5.0,93,0.00,,,0.00,WeatherTracker,2013-03-11 15:13:00,
2013-03-11 08:18:00,45.9,44.3,30.19,NNW,335,3.0,5.0,94,0.00,,,0.00,WeatherTracker,2013-03-11 15:18:00,
2013-03-11 08:23:00,46.4,44.5,30.19,NNW,335,2.0,5.0,93,0.00,,,0.00,WeatherTracker,2013-03-11 15:23:00,
2013-03-11 08:28:00,46.9,45.0,30.19,NNW,335,2.0,4.0,93,0.00,,,0.00,WeatherTracker,2013-03-11 15:28:00,
2013-03-11 08:33:00,47.4,45.5,30.19,NNW,335,4.0,4.0,93,0.00,,,0.00,WeatherTracker,2013-03-11 15:33:00,
2013-03-11 08:38:00,47.9,46.0,30.19,NNW,334,2.0,4.0,93,0.00,,,0.00,WeatherTracker,2013-03-11 15:38:00,
2013-03-11 08:43:00,48.2,46.0,30.19,NNW,335,3.0,4.0,92,0.00,,,0.00,WeatherTracker,2013-03-11 15:43:00,
2013-03-11 08:48:00,48.6,46.4,30.20,NNW,335,3.0,4.0,92,0.00,,,0.00,WeatherTracker,2013-03-11 15:48:00,
2013-03-11 08:53:00,49.2,47.0,30.20,NNW,336,3.0,4.0,92,0.00,,,0.00,WeatherTracker,2013-03-11 15:53:00,
2013-03-11 08:58:00,49.5,47.0,30.20,NNW,337,3.0,5.0,91,0.00,,,0.00,WeatherTracker,2013-03-11 15:58:00,
2013-03-11 09:03:00,49.6,47.1,30.20,NNW,337,2.0,5.0,91,0.00,,,0.00,WeatherTracker,2013-03-11 16:03:00,
2013-03-11 09:08:00,49.6,46.8,30.20,NNW,337,2.0,4.0,90,0.00,,,0.00,WeatherTracker,2013-03-11 16:08:00,
2013-03-11 09:13:00,49.7,46.9,30.20,NNW,336,4.0,5.0,90,0.00,,,0.00,WeatherTracker,2013-03-11 16:13:00,
2013-03-11 09:18:00,50.0,46.9,30.20,NNW,337,5.0,5.0,89,0.00,,,0.00,WeatherTracker,2013-03-11 16:18:00,
2013-03-11 09:23:00,50.3,47.2,30.20,NNW,338,4.0,5.0,89,0.00,,,0.00,WeatherTracker,2013-03-11 16:23:00,
2013-03-11 09:28:00,50.9,47.8,30.20,NNW,343,3.0,5.0,89,0.00,,,0.00,WeatherTracker,2013-03-11 16:28:00,
2013-03-11 09:34:00,51.7,48.6,30.20,NNW,346,5.0,5.0,89,0.00,,,0.00,WeatherTracker,2013-03-11 16:34:00,
2013-03-11 09:39:00,52.0,48.6,30.20,NNW,346,4.0,5.0,88,0.00,,,0.00,WeatherTracker,2013-03-11 16:39:00,
2013-03-11 09:44:00,52.7,48.9,30.20,NNW,346,4.0,5.0,87,0.00,,,0.00,WeatherTracker,2013-03-11 16:44:00,
2013-03-11 09:49:00,52.9,48.5,30.20,NNW,346,3.0,5.0,85,0.00,,,0.00,WeatherTracker,2013-03-11 16:49:00,
2013-03-11 09:54:00,53.3,48.6,30.20,NNW,346,2.0,5.0,84,0.00,,,0.00,WeatherTracker,2013-03-11 16:54:00,
2013-03-11 09:59:00,53.7,49.0,30.20,NNW,346,1.0,5.0,84,0.00,,,0.00,WeatherTracker,2013-03-11 16:59:00,
2013-03-11 10:04:00,54.4,49.3,30.20,NNW,346,3.0,5.0,83,0.00,,,0.00,WeatherTracker,2013-03-11 17:04:00,
2013-03-11 10:09:00,55.2,49.5,30.20,NNW,346,2.0,5.0,81,0.00,,,0.00,WeatherTracker,2013-03-11 17:09:00,
2013-03-11 10:14:00,55.9,49.8,30.19,NNW,347,3.0,5.0,80,0.00,,,0.00,WeatherTracker,2013-03-11 17:14:00,
2013-03-11 10:19:00,56.6,49.8,30.19,NNW,347,1.0,4.0,78,0.00,,,0.00,WeatherTracker,2013-03-11 17:19:00,
2013-03-11 10:24:00,57.3,50.2,30.19,NNW,347,4.0,4.0,77,0.00,,,0.00,WeatherTracker,2013-03-11 17:24:00,
2013-03-11 10:29:00,57.7,50.2,30.19,North,355,4.0,4.0,76,0.00,,,0.00,WeatherTracker,2013-03-11 17:29:00,
2013-03-11 10:34:00,57.9,49.7,30.19,NNE,16,3.0,6.0,74,0.00,,,0.00,WeatherTracker,2013-03-11 17:34:00,
2013-03-11 10:39:00,57.3,49.8,30.19,NNE,19,5.0,6.0,76,0.00,,,0.00,WeatherTracker,2013-03-11 17:39:00,
2013-03-11 10:44:00,57.1,50.0,30.19,NNE,19,4.0,6.0,77,0.00,,,0.00,WeatherTracker,2013-03-11 17:44:00,
2013-03-11 10:49:00,57.2,50.1,30.19,NNE,20,4.0,6.0,77,0.00,,,0.00,WeatherTracker,2013-03-11 17:49:00,
2013-03-11 10:54:00,57.1,50.0,30.19,NNE,19,3.0,5.0,77,0.00,,,0.00,WeatherTracker,2013-03-11 17:54:00,
2013-03-11 10:59:00,55.0,48.3,30.19,NNE,19,2.0,5.0,78,0.00,,,0.00,WeatherTracker,2013-03-11 17:59:00,
2013-03-11 11:04:00,54.0,48.3,30.19,SSE,153,4.0,4.0,81,0.00,,,0.00,WeatherTracker,2013-03-11 18:04:00,
2013-03-11 11:09:00,53.3,48.3,30.19,SSE,153,4.0,5.0,83,0.00,,,0.00,WeatherTracker,2013-03-11 18:09:00,
2013-03-11 11:14:00,52.8,48.1,30.19,SE,130,4.0,5.0,84,0.00,,,0.00,WeatherTracker,2013-03-11 18:14:00,
2013-03-11 11:19:00,52.6,48.2,30.19,ESE,118,4.0,5.0,85,0.00,,,0.00,WeatherTracker,2013-03-11 18:19:00,
2013-03-11 11:24:00,52.5,48.4,30.19,SE,126,3.0,5.0,86,0.00,,,0.00,WeatherTracker,2013-03-11 18:24:00,
2013-03-11 11:29:00,52.5,48.4,30.19,SSE,148,3.0,5.0,86,0.00,,,0.00,WeatherTracker,2013-03-11 18:29:00,
2013-03-11 11:34:00,52.4,48.3,30.19,SSE,148,2.0,5.0,86,0.00,,,0.00,WeatherTracker,2013-03-11 18:34:00,
2013-03-11 11:40:00,52.5,48.4,30.19,SSE,148,3.0,3.0,86,0.00,,,0.00,WeatherTracker,2013-03-11 18:40:00,
2013-03-11 11:45:00,52.8,48.7,30.18,SE,146,1.0,3.0,86,0.00,,,0.00,WeatherTracker,2013-03-11 18:45:00,
2013-03-11 11:50:00,53.0,48.6,30.18,SSE,148,1.0,3.0,85,0.00,,,0.00,WeatherTracker,2013-03-11 18:50:00,
2013-03-11 11:55:00,53.1,48.7,30.18,SSE,148,1.0,3.0,85,0.00,,,0.00,WeatherTracker,2013-03-11 18:55:00,
2013-03-11 12:00:00,53.3,48.6,30.18,SSE,148,1.0,3.0,84,0.00,,,0.00,WeatherTracker,2013-03-11 19:00:00,
2013-03-11 12:05:00,53.5,48.5,30.18,SSE,148,0.0,3.0,83,0.00,,,0.00,WeatherTracker,2013-03-11 19:05:00,
2013-03-11 12:10:00,53.8,48.1,30.18,SSE,148,1.0,2.0,81,0.00,,,0.00,WeatherTracker,2013-03-11 19:10:00,
2013-03-11 12:15:00,53.8,47.8,30.18,SSE,148,1.0,3.0,80,0.00,,,0.00,WeatherTracker,2013-03-11 19:15:00,
2013-03-11 12:20:00,54.0,48.0,30.18,SE,146,0.0,3.0,80,0.00,,,0.00,WeatherTracker,2013-03-11 19:20:00,
2013-03-11 12:25:00,54.2,48.2,30.18,SSE,148,0.0,3.0,80,0.00,,,0.00,WeatherTracker,2013-03-11 19:25:00,
2013-03-11 12:30:00,54.3,48.6,30.17,SSE,147,1.0,3.0,81,0.00,,,0.00,WeatherTracker,2013-03-11 19:30:00,
2013-03-11 12:35:00,54.2,48.2,30.17,SSE,148,1.0,3.0,80,0.00,,,0.00,WeatherTracker,2013-03-11 19:35:00,
2013-03-11 12:40:00,54.2,48.2,30.17,SE,146,1.0,3.0,80,0.00,,,0.00,WeatherTracker,2013-03-11 19:40:00,
2013-03-11 12:45:00,54.4,48.4,30.16,SSE,148,1.0,2.0,80,0.00,,,0.00,WeatherTracker,2013-03-11 19:45:00,
2013-03-11 12:50:00,54.4,48.4,30.16,SE,146,1.0,3.0,80,0.00,,,0.00,WeatherTracker,2013-03-11 19:50:00,
2013-03-11 12:55:00,54.6,48.6,30.16,SSE,148,3.0,3.0,80,0.00,,,0.00,WeatherTracker,2013-03-11 19:55:00,
2013-03-11 13:00:00,54.6,48.2,30.15,SSE,148,2.0,3.0,79,0.00,,,0.00,WeatherTracker,2013-03-11 20:00:00,
2013-03-11 13:05:00,54.9,48.8,30.15,SSE,148,2.0,3.0,80,0.00,,,0.00,WeatherTracker,2013-03-11 20:05:00,
2013-03-11 13:10:00,55.0,48.9,30.15,SSE,148,1.0,3.0,80,0.00,,,0.00,WeatherTracker,2013-03-11 20:10:00,
2013-03-11 13:15:00,55.1,48.7,30.15,SSE,147,2.0,3.0,79,0.00,,,0.00,WeatherTracker,2013-03-11 20:15:00,
2013-03-11 13:20:00,55.4,48.3,30.15,SSE,148,2.0,4.0,77,0.00,,,0.00,WeatherTracker,2013-03-11 20:20:00,
2013-03-11 13:25:00,56.0,48.5,30.15,SSE,148,2.0,4.0,76,0.00,,,0.00,WeatherTracker,2013-03-11 20:25:00,
2013-03-11 13:30:00,56.4,49.3,30.14,SSE,153,4.0,4.0,77,0.00,,,0.00,WeatherTracker,2013-03-11 20:30:00,
2013-03-11 13:36:00,56.6,48.8,30.14,SSE,161,1.0,5.0,75,0.00,,,0.00,WeatherTracker,2013-03-11 20:36:00,
2013-03-11 13:41:00,57.1,48.5,30.14,SSE,161,3.0,5.0,73,0.00,,,0.00,WeatherTracker,2013-03-11 20:41:00,
2013-03-11 13:46:00,57.4,47.7,30.13,SSE,161,0.0,4.0,70,0.00,,,0.00,WeatherTracker,2013-03-11 20:46:00,
2013-03-11 13:51:00,58.2,47.7,30.13,SSE,161,2.0,4.0,68,0.00,,,0.00,WeatherTracker,2013-03-11 20:51:00,
2013-03-11 13:56:00,58.7,47.8,30.13,SSE,161,2.0,3.0,67,0.00,,,0.00,WeatherTracker,2013-03-11 20:56:00,
2013-03-11 14:01:00,59.1,47.8,30.13,SSE,161,0.0,3.0,66,0.00,,,0.00,WeatherTracker,2013-03-11 21:01:00,
2013-03-11 14:06:00,59.7,48.3,30.13,SSE,160,2.0,3.0,66,0.00,,,0.00,WeatherTracker,2013-03-11 21:06:00,
2013-03-11 14:11:00,62.6,49.0,30.13,South,186,11.0,11.0,61,0.00,,,0.00,WeatherTracker,2013-03-11 21:11:00,
2013-03-11 14:16:00,65.1,48.5,30.12,South,190,11.0,13.0,55,0.00,,,0.00,WeatherTracker,2013-03-11 21:16:00,
2013-03-11 14:21:00,65.5,47.9,30.12,SSW,193,12.0,14.0,53,0.00,,,0.00,WeatherTracker,2013-03-11 21:21:00,
2013-03-11 14:26:00,65.9,47.3,30.12,SSW,198,9.0,14.0,51,0.00,,,0.00,WeatherTracker,2013-03-11 21:26:00,
2013-03-11 14:31:00,66.3,46.0,30.11,SW,222,6.0,14.0,48,0.00,,,0.00,WeatherTracker,2013-03-11 21:31:00,
2013-03-11 14:36:00,66.9,46.0,30.11,WNW,300,5.0,12.0,47,0.00,,,0.00,WeatherTracker,2013-03-11 21:36:00,
2013-03-11 14:41:00,68.1,45.4,30.11,WSW,241,5.0,10.0,44,0.00,,,0.00,WeatherTracker,2013-03-11 21:41:00,
2013-03-11 14:46:00,68.4,45.0,30.10,WNW,287,7.0,11.0,43,0.00,,,0.00,WeatherTracker,2013-03-11 21:46:00,
2013-03-11 14:51:00,68.4,45.0,30.10,WSW,244,3.0,11.0,43,0.00,,,0.00,WeatherTracker,2013-03-11 21:51:00,
2013-03-11 14:56:00,68.0,44.0,30.10,WSW,256,3.0,13.0,42,0.00,,,0.00,WeatherTracker,2013-03-11 21:56:00,
2013-03-11 15:02:00,67.3,44.0,30.10,SW,225,5.0,13.0,43,0.00,,,0.00,WeatherTracker,2013-03-11 22:02:00,
2013-03-11 15:07:00,66.8,43.6,30.10,SSW,203,9.0,16.0,43,0.00,,,0.00,WeatherTracker,2013-03-11 22:07:00,
2013-03-11 15:12:00,66.9,42.4,30.10,SSW,209,7.0,18.0,41,0.00,,,0.00,WeatherTracker,2013-03-11 22:12:00,
2013-03-11 15:17:00,67.0,42.5,30.10,SW,214,5.0,18.0,41,0.00,,,0.00,WeatherTracker,2013-03-11 22:17:00,
2013-03-11 15:22:00,67.0,41.9,30.10,SW,221,5.0,17.0,40,0.00,,,0.00,WeatherTracker,2013-03-11 22:22:00,
2013-03-11 15:27:00,67.0,41.9,30.10,SSW,192,4.0,16.0,40,0.00,,,0.00,WeatherTracker,2013-03-11 22:27:00,
2013-03-11 15:32:00,66.5,41.4,30.09,West,260,9.0,18.0,40,0.00,,,0.00,WeatherTracker,2013-03-11 22:32:00,
2013-03-11 15:37:00,66.5,41.4,30.09,West,264,6.0,18.0,40,0.00,,,0.00,WeatherTracker,2013-03-11 22:37:00,
2013-03-11 15:42:00,66.5,43.3,30.09,West,267,12.0,18.0,43,0.00,,,0.00,WeatherTracker,2013-03-11 22:42:00,
2013-03-11 15:47:00,66.4,42.6,30.09,SW,219,9.0,18.0,42,0.00,,,0.00,WeatherTracker,2013-03-11 22:47:00,
2013-03-11 15:52:00,66.8,43.6,30.09,SW,234,15.0,18.0,43,0.00,,,0.00,WeatherTracker,2013-03-11 22:52:00,
2013-03-11 15:57:00,66.6,44.6,30.09,South,186,12.0,18.0,45,0.00,,,0.00,WeatherTracker,2013-03-11 22:57:00,
2013-03-11 16:02:00,65.1,43.8,30.09,SSW,193,5.0,16.0,46,0.00,,,0.00,WeatherTracker,2013-03-11 23:02:00,
2013-03-11 16:07:00,66.1,42.9,30.09,SW,219,11.0,16.0,43,0.00,,,0.00,WeatherTracker,2013-03-11 23:07:00,
2013-03-11 16:12:00,66.3,41.9,30.09,West,281,2.0,18.0,41,0.00,,,0.00,WeatherTracker,2013-03-11 23:12:00,
2013-03-11 16:17:00,67.0,41.9,30.08,SSW,213,3.0,18.0,40,0.00,,,0.00,WeatherTracker,2013-03-11 23:17:00,
2013-03-11 16:23:00,65.7,45.5,30.08,South,191,6.0,18.0,48,0.00,,,0.00,WeatherTracker,2013-03-11 23:23:00,
2013-03-11 16:28:00,64.2,45.2,30.08,ENE,72,6.0,12.0,50,0.00,,,0.00,WeatherTracker,2013-03-11 23:28:00,
2013-03-11 16:33:00,62.8,45.4,30.08,ENE,68,10.0,14.0,53,0.00,,,0.00,WeatherTracker,2013-03-11 23:33:00,
2013-03-11 16:38:00,63.0,44.6,30.08,ENE,62,5.0,16.0,51,0.00,,,0.00,WeatherTracker,2013-03-11 23:38:00,
2013-03-11 16:43:00,64.1,42.9,30.08,East,101,3.0,16.0,46,0.00,,,0.00,WeatherTracker,2013-03-11 23:43:00,
2013-03-11 16:48:00,63.8,45.3,30.07,East,94,10.0,15.0,51,0.00,,,0.00,WeatherTracker,2013-03-11 23:48:00,
2013-03-11 16:53:00,62.5,44.1,30.07,ENE,64,12.0,15.0,51,0.00,,,0.00,WeatherTracker,2013-03-11 23:53:00,
2013-03-11 16:58:00,62.2,44.9,30.07,ENE,76,3.0,15.0,53,0.00,,,0.00,WeatherTracker,2013-03-11 23:58:00,
2013-03-11 17:03:00,61.6,44.8,30.07,ENE,67,7.0,15.0,54,0.00,,,0.00,WeatherTracker,2013-03-12 00:03:00,
2013-03-11 17:08:00,62.3,45.4,30.07,ESE,103,6.0,15.0,54,0.00,,,0.00,WeatherTracker,2013-03-12 00:08:00,
2013-03-11 17:13:00,62.1,46.7,30.07,ENE,63,2.0,13.0,57,0.00,,,0.00,WeatherTracker,2013-03-12 00:13:00,
2013-03-11 17:18:00,62.2,46.3,30.06,East,84,0.0,11.0,56,0.00,,,0.00,WeatherTracker,2013-03-12 00:18:00,
2013-03-11 17:23:00,62.2,45.8,30.06,NNE,12,3.0,6.0,55,0.00,,,0.00,WeatherTracker,2013-03-12 00:23:00,
2013-03-11 17:28:00,62.6,46.7,30.06,East,97,2.0,10.0,56,0.00,,,0.00,WeatherTracker,2013-03-12 00:28:00,
2013-03-11 17:33:00,63.2,44.8,30.06,WNW,295,9.0,13.0,51,0.00,,,0.00,WeatherTracker,2013-03-12 00:33:00,
2013-03-11 17:38:00,64.2,44.1,30.06,West,263,6.0,15.0,48,0.00,,,0.00,WeatherTracker,2013-03-12 00:38:00,
2013-03-11 17:43:00,62.6,47.1,30.06,East,96,8.0,15.0,57,0.00,,,0.00,WeatherTracker,2013-03-12 00:43:00,
2013-03-11 17:48:00,60.9,47.4,30.05,NNE,14,2.0,13.0,61,0.00,,,0.00,WeatherTracker,2013-03-12 00:48:00,
2013-03-11 17:53:00,60.7,46.7,30.05,NE,52,0.0,13.0,60,0.00,,,0.00,WeatherTracker,2013-03-12 00:53:00,
2013-03-11 17:58:00,60.9,46.5,30.05,NE,52,0.0,7.0,59,0.00,,,0.00,WeatherTracker,2013-03-12 00:58:00,
2013-03-11 18:04:00,62.1,47.1,30.05,NNW,345,1.0,4.0,58,0.00,,,0.00,WeatherTracker,2013-03-12 01:04:00,
2013-03-11 18:09:00,62.2,46.3,30.05,NNW,346,2.0,4.0,56,0.00,,,0.00,WeatherTracker,2013-03-12 01:09:00,
2013-03-11 18:14:00,61.8,47.3,30.05,SSE,155,5.0,5.0,59,0.00,,,0.00,WeatherTracker,2013-03-12 01:14:00,
2013-03-11 18:19:00,60.5,47.8,30.05,SSE,163,2.0,5.0,63,0.00,,,0.00,WeatherTracker,2013-03-12 01:19:00,
2013-03-11 18:24:00,59.1,47.3,30.05,South,171,5.0,7.0,65,0.00,,,0.00,WeatherTracker,2013-03-12 01:24:00,
2013-03-11 18:29:00,58.4,47.9,30.05,South,174,4.0,7.0,68,0.00,,,0.00,WeatherTracker,2013-03-12 01:29:00,
2013-03-11 18:34:00,57.7,48.4,30.05,South,184,3.0,12.0,71,0.00,,,0.00,WeatherTracker,2013-03-12 01:34:00,
2013-03-11 18:39:00,57.2,47.9,30.05,South,185,3.0,12.0,71,0.00,,,0.00,WeatherTracker,2013-03-12 01:39:00,
2013-03-11 18:44:00,57.1,47.8,30.05,South,184,2.0,9.0,71,0.00,,,0.00,WeatherTracker,2013-03-12 01:44:00,
2013-03-11 18:49:00,57.2,47.9,30.05,South,184,0.0,4.0,71,0.00,,,0.00,WeatherTracker,2013-03-12 01:49:00,
2013-03-11 18:54:00,57.5,47.0,30.05,West,267,2.0,5.0,68,0.00,,,0.00,WeatherTracker,2013-03-12 01:54:00,
2013-03-11 18:59:00,58.5,46.4,30.05,West,263,4.0,10.0,64,0.00,,,0.00,WeatherTracker,2013-03-12 01:59:00,
2013-03-11 19:04:00,58.5,47.2,30.05,West,263,0.0,10.0,66,0.00,,,0.00,WeatherTracker,2013-03-12 02:04:00,
2013-03-11 19:09:00,57.7,47.2,30.05,South,172,2.0,7.0,68,0.00,,,0.00,WeatherTracker,2013-03-12 02:09:00,
2013-03-11 19:14:00,57.3,47.2,30.04,South,171,2.0,5.0,69,0.00,,,0.00,WeatherTracker,2013-03-12 02:14:00,
2013-03-11 19:19:00,57.3,47.2,30.04,South,171,2.0,4.0,69,0.00,,,0.00,WeatherTracker,2013-03-12 02:19:00,
2013-03-11 19:24:00,57.2,47.5,30.04,South,171,0.0,4.0,70,0.00,,,0.00,WeatherTracker,2013-03-12 02:24:00,
2013-03-11 19:29:00,57.0,47.7,30.05,South,171,0.0,3.0,71,0.00,,,0.00,WeatherTracker,2013-03-12 02:29:00,
2013-03-11 19:34:00,56.7,47.8,30.05,South,171,3.0,4.0,72,0.00,,,0.00,WeatherTracker,2013-03-12 02:34:00,
2013-03-11 19:40:00,56.6,47.3,30.05,South,171,0.0,5.0,71,0.00,,,0.00,WeatherTracker,2013-03-12 02:40:00,
2013-03-11 19:45:00,56.7,47.8,30.05,East,94,3.0,4.0,72,0.00,,,0.00,WeatherTracker,2013-03-12 02:45:00,
2013-03-11 19:50:00,56.7,48.1,30.05,NE,48,1.0,4.0,73,0.00,,,0.00,WeatherTracker,2013-03-12 02:50:00,
2013-03-11 19:55:00,56.6,47.7,30.05,NE,48,0.0,4.0,72,0.00,,,0.00,WeatherTracker,2013-03-12 02:55:00,
2013-03-11 20:00:00,56.6,48.0,30.05,NNE,13,5.0,5.0,73,0.00,,,0.00,WeatherTracker,2013-03-12 03:00:00,
2013-03-11 20:05:00,56.5,48.7,30.05,NNE,25,3.0,5.0,75,0.00,,,0.00,WeatherTracker,2013-03-12 03:05:00,
2013-03-11 20:10:00,56.1,48.6,30.05,NE,49,5.0,5.0,76,0.00,,,0.00,WeatherTracker,2013-03-12 03:10:00,
2013-03-11 20:15:00,55.8,48.7,30.05,NE,49,1.0,5.0,77,0.00,,,0.00,WeatherTracker,2013-03-12 03:15:00,
2013-03-11 20:20:00,55.6,48.8,30.05,ENE,68,5.0,6.0,78,0.00,,,0.00,WeatherTracker,2013-03-12 03:20:00,
2013-03-11 20:25:00,55.3,48.9,30.05,NE,51,6.0,9.0,79,0.00,,,0.00,WeatherTracker,2013-03-12 03:25:00,
2013-03-11 20:30:00,55.2,48.8,30.05,NE,49,2.0,9.0,79,0.00,,,0.00,WeatherTracker,2013-03-12 03:30:00,
2013-03-11 20:35:00,55.1,48.7,30.05,NE,48,3.0,7.0,79,0.00,,,0.00,WeatherTracker,2013-03-12 03:35:00,
2013-03-11 20:40:00,55.0,48.6,30.05,NE,49,3.0,5.0,79,0.00,,,0.00,WeatherTracker,2013-03-12 03:40:00,
2013-03-11 20:45:00,54.9,48.8,30.05,NE,46,3.0,5.0,80,0.00,,,0.00,WeatherTracker,2013-03-12 03:45:00,
2013-03-11 20:50:00,54.8,48.7,30.05,NE,45,4.0,5.0,80,0.00,,,0.00,WeatherTracker,2013-03-12 03:50:00,
2013-03-11 20:55:00,54.6,48.6,30.05,NE,45,2.0,5.0,80,0.00,,,0.00,WeatherTracker,2013-03-12 03:55:00,
2013-03-11 21:00:00,54.7,49.0,30.05,NE,45,1.0,4.0,81,0.00,,,0.00,WeatherTracker,2013-03-12 04:00:00,
2013-03-11 21:01:00,54.6,48.9,30.05,NE,45,0.0,3.0,81,0.00,,,0.00,WeatherTracker,2013-03-12 04:01:00,
2013-03-11 21:06:00,54.5,48.8,30.05,NE,45,1.0,3.0,81,0.00,,,0.00,WeatherTracker,2013-03-12 04:06:00,
2013-03-11 21:11:00,54.4,48.7,30.05,NE,40,2.0,3.0,81,0.00,,,0.00,WeatherTracker,2013-03-12 04:11:00,
2013-03-11 21:16:00,54.4,48.7,30.06,NE,39,1.0,4.0,81,0.00,,,0.00,WeatherTracker,2013-03-12 04:16:00,
2013-03-11 21:21:00,54.4,48.4,30.06,NE,39,2.0,4.0,80,0.00,,,0.00,WeatherTracker,2013-03-12 04:21:00,
2013-03-11 21:26:00,54.2,48.2,30.06,NE,38,1.0,3.0,80,0.00,,,0.00,WeatherTracker,2013-03-12 04:26:00,
2013-03-11 21:32:00,54.1,48.1,30.07,NE,38,0.0,3.0,80,0.00,,,0.00,WeatherTracker,2013-03-12 04:32:00,
2013-03-11 21:37:00,54.1,48.4,30.07,NE,38,0.0,2.0,81,0.00,,,0.00,WeatherTracker,2013-03-12 04:37:00,
2013-03-11 21:42:00,54.0,48.3,30.07,NE,40,1.0,3.0,81,0.00,,,0.00,WeatherTracker,2013-03-12 04:42:00,
2013-03-11 21:47:00,54.0,48.6,30.07,NE,41,1.0,4.0,82,0.00,,,0.00,WeatherTracker,2013-03-12 04:47:00,
2013-03-11 21:52:00,54.2,48.8,30.07,SE,126,1.0,4.0,82,0.00,,,0.00,WeatherTracker,2013-03-12 04:52:00,
2013-03-11 21:57:00,54.2,48.5,30.07,South,175,5.0,6.0,81,0.00,,,0.00,WeatherTracker,2013-03-12 04:57:00,
2013-03-11 22:02:00,54.1,48.4,30.07,South,174,3.0,7.0,81,0.00,,,0.00,WeatherTracker,2013-03-12 05:02:00,
2013-03-11 22:07:00,54.0,48.6,30.07,South,173,0.0,7.0,82,0.00,,,0.00,WeatherTracker,2013-03-12 05:07:00,
2013-03-11 22:12:00,53.7,48.3,30.07,South,174,3.0,5.0,82,0.00,,,0.00,WeatherTracker,2013-03-12 05:12:00,
2013-03-11 22:17:00,53.5,48.1,30.07,South,174,0.0,4.0,82,0.00,,,0.00,WeatherTracker,2013-03-12 05:17:00,
2013-03-11 22:22:00,53.4,48.0,30.07,South,174,0.0,3.0,82,0.00,,,0.00,WeatherTracker,2013-03-12 05:22:00,
2013-03-11 22:27:00,53.6,48.9,30.07,South,173,1.0,4.0,84,0.00,,,0.00,WeatherTracker,2013-03-12 05:27:00,
2013-03-11 22:32:00,53.4,48.7,30.07,South,173,2.0,4.0,84,0.00,,,0.00,WeatherTracker,2013-03-12 05:32:00,
2013-03-11 22:37:00,53.3,48.6,30.07,South,173,4.0,4.0,84,0.00,,,0.00,WeatherTracker,2013-03-12 05:37:00,
2013-03-11 22:42:00,53.4,49.0,30.07,ESE,115,2.0,6.0,85,0.00,,,0.00,WeatherTracker,2013-03-12 05:42:00,
2013-03-11 22:47:00,53.7,49.0,30.06,SSE,161,2.0,7.0,84,0.00,,,0.00,WeatherTracker,2013-03-12 05:47:00,
2013-03-11 22:52:00,53.7,49.0,30.06,NE,37,4.0,9.0,84,0.00,,,0.00,WeatherTracker,2013-03-12 05:52:00,
2013-03-11 22:57:00,53.5,48.8,30.06,NNE,29,5.0,9.0,84,0.00,,,0.00,WeatherTracker,2013-03-12 05:57:00,
2013-03-11 23:03:00,53.4,49.0,30.07,NNE,28,5.0,6.0,85,0.00,,,0.00,WeatherTracker,2013-03-12 06:03:00,
2013-03-11 23:08:00,53.2,48.8,30.07,NNE,28,4.0,6.0,85,0.00,,,0.00,WeatherTracker,2013-03-12 06:08:00,
2013-03-11 23:13:00,53.2,49.1,30.07,NNE,28,2.0,6.0,86,0.00,,,0.00,WeatherTracker,2013-03-12 06:13:00,
2013-03-11 23:18:00,53.2,49.1,30.07,NNE,28,1.0,5.0,86,0.00,,,0.00,WeatherTracker,2013-03-12 06:18:00,
2013-03-11 23:23:00,53.0,48.9,30.07,NNE,28,1.0,3.0,86,0.00,,,0.00,WeatherTracker,2013-03-12 06:23:00,
2013-03-11 23:28:00,53.0,48.9,30.07,NNE,28,2.0,3.0,86,0.00,,,0.00,WeatherTracker,2013-03-12 06:28:00,
2013-03-11 23:33:00,53.0,49.2,30.07,NNE,28,3.0,3.0,87,0.00,,,0.00,WeatherTracker,2013-03-12 06:33:00,
2013-03-11 23:38:00,52.8,49.0,30.07,ESE,105,4.0,5.0,87,0.00,,,0.00,WeatherTracker,2013-03-12 06:38:00,
2013-03-11 23:43:00,52.2,48.8,30.07,East,96,4.0,7.0,88,0.00,,,0.00,WeatherTracker,2013-03-12 06:43:00,
2013-03-11 23:48:00,52.1,48.7,30.07,East,96,0.0,7.0,88,0.00,,,0.00,WeatherTracker,2013-03-12 06:48:00,
2013-03-11 23:53:00,52.0,48.6,30.07,East,96,2.0,4.0,88,0.00,,,0.00,WeatherTracker,2013-03-12 06:53:00,
2013-03-11 23:58:00,51.8,48.4,30.07,East,96,0.0,3.0,88,0.00,,,0.00,WeatherTracker,2013-03-12 06:58:00,